DW9169 Weather Reports


time (UTC)temp
C
wind
direction
speed
KPH
gust
KPH
rain 1hr
cm
rain 24hr
cm
rain mn
cm
humidity
%
barometer
mb
20260505061906 12 60 0.0 0.0 0.00 0.15 0.00 91 1008.6
20260505061406 12 62 0.0 4.8 0.00 0.15 0.00 91 1008.6
20260505060906 12 44 1.6 4.8 0.00 0.15 0.00 91 1008.6
20260505060406 12 0 0.0 0.0 0.00 0.15 0.00 91 1008.6
20260505055906 12 49 3.2 8.0 0.00 0.15 0.00 91 1008.6
20260505054906 12 58 1.6 4.8 0.00 0.15 0.00 91 1008.6
20260505054406 12 41 1.6 4.8 0.00 0.15 0.00 91 1008.6
20260505053906 12 23 1.6 3.2 0.00 0.15 0.00 91 1008.6
20260505052906 12 24 0.0 1.6 0.00 0.15 0.00 91 1008.6
20260505052407 12 1 0.0 3.2 0.00 0.15 0.00 91 1008.6
20260505051906 12 10 0.0 1.6 0.00 0.15 0.00 91 1008.6
20260505050906 12 78 0.0 0.0 0.00 0.15 0.00 91 1008.5
20260505050406 12 88 0.0 1.6 0.00 0.15 0.00 91 1008.4
20260505041406 12 312 0.0 4.8 0.00 0.15 0.00 91 1008.6
20260505040906 12 289 0.0 4.8 0.00 0.15 0.00 91 1008.6
20260505040406 12 298 0.0 0.0 0.00 0.15 0.00 91 1008.7
20260505035906 12 284 0.0 0.0 0.00 0.15 0.00 91 1008.7
20260505035407 12 284 0.0 0.0 0.00 0.15 0.00 91 1008.7
20260505034906 12 284 0.0 0.0 0.00 0.15 0.00 91 1008.8
20260505034406 12 284 0.0 0.0 0.00 0.15 0.00 91 1008.8
20260505033906 12 284 0.0 0.0 0.00 0.15 0.00 91 1008.9
20260505033406 12 284 0.0 0.0 0.00 0.15 0.00 91 1008.9
20260505031906 12 10 0.0 1.6 0.00 0.15 0.00 91 1008.9
20260505031406 12 5 0.0 1.6 0.00 0.15 0.00 91 1008.9
20260505030906 12 5 0.0 0.0 0.00 0.15 0.00 91 1009.0
20260505025906 12 5 0.0 0.0 0.00 0.15 0.00 91 1009.1
20260505024906 12 5 0.0 1.6 0.00 0.15 0.00 91 1009.2
20260505023906 12 2 0.0 1.6 0.00 0.15 0.00 91 1009.2
20260505023405 12 24 1.6 3.2 0.00 0.15 0.00 91 1009.2
20260505022906 12 38 0.0 1.6 0.00 0.15 0.00 91 1009.2
20260505022406 12 38 0.0 0.0 0.00 0.15 0.00 91 1009.2
20260505021406 12 38 0.0 1.6 0.00 0.15 0.00 91 1009.1
20260505020907 12 43 0.0 1.6 0.00 0.15 0.00 91 1009.0
20260505020406 12 59 1.6 3.2 0.00 0.15 0.00 91 1009.1
20260505015906 12 45 0.0 0.0 0.00 0.15 0.00 91 1009.1
20260505015407 12 45 0.0 4.8 0.00 0.15 0.00 91 1009.1
20260505014907 12 70 1.6 3.2 0.00 0.15 0.00 91 1009.1
20260505014406 12 55 0.0 3.2 0.00 0.15 0.00 91 1009.1
20260505013406 12 26 0.0 1.6 0.00 0.15 0.00 91 1009.1
20260505012906 12 21 0.0 3.2 0.00 0.15 0.00 91 1009.2
20260505012406 12 46 0.0 0.0 0.00 0.15 0.00 92 1009.2
20260505011406 13 5 0.0 0.0 0.00 0.15 0.00 92 1009.2
20260505010906 13 0 0.0 0.0 0.00 0.15 0.00 92 1009.2
20260505010406 13 355 0.0 0.0 0.00 0.15 0.00 92 1009.3
20260505005906 12 50 0.0 0.0 0.00 0.15 0.00 92 1009.3
20260505005406 12 53 0.0 0.0 0.00 0.15 0.00 92 1009.3
20260505004906 12 62 0.0 0.0 0.00 0.15 0.00 92 1009.3
20260505004406 12 58 0.0 0.0 0.00 0.15 0.00 92 1009.3
20260505003906 12 58 0.0 0.0 0.00 0.15 0.00 92 1009.3
20260505003407 12 58 0.0 0.0 0.00 0.15 0.00 92 1009.4
20260505002906 12 58 0.0 0.0 0.00 0.15 0.00 92 1009.4
20260505002406 12 58 0.0 0.0 0.00 0.15 0.00 92 1009.4
20260505001906 12 58 0.0 0.0 0.00 0.15 0.00 92 1009.5
20260505001406 12 58 0.0 0.0 0.00 0.15 0.00 92 1009.6
20260505000906 12 58 0.0 0.0 0.00 0.15 0.00 92 1009.7
20260505000406 12 58 0.0 0.0 0.00 0.15 0.00 92 1009.8
20260504235906 12 58 0.0 0.0 0.00 0.15 0.00 92 1009.8
20260504235406 12 57 0.0 0.0 0.00 0.15 0.00 92 1009.8
20260504234906 12 57 0.0 0.0 0.00 0.15 0.00 92 1009.8
20260504233406 12 57 0.0 0.0 0.00 0.15 0.00 92 1009.9
20260504232906 12 57 0.0 0.0 0.00 0.15 0.00 92 1009.9
20260504232406 12 57 0.0 0.0 0.00 0.15 0.00 92 1009.9
20260504231906 12 57 0.0 0.0 0.00 0.15 0.00 92 1010.0
20260504231406 12 57 0.0 0.0 0.00 0.15 0.00 92 1010.0
20260504230405 12 57 0.0 0.0 0.00 0.15 0.00 92 1010.1
20260504225407 12 57 0.0 0.0 0.00 0.15 0.00 92 1010.2
20260504224906 12 57 0.0 0.0 0.00 0.15 0.00 92 1010.2
20260504224406 12 57 0.0 0.0 0.00 0.15 0.00 91 1010.2
20260504223906 12 57 0.0 0.0 0.00 0.15 0.00 91 1010.2
20260504223406 12 57 0.0 0.0 0.00 0.15 0.00 91 1010.2
20260504222906 12 57 0.0 0.0 0.00 0.15 0.00 91 1010.3
20260504222406 12 57 0.0 0.0 0.00 0.15 0.00 91 1010.4
20260504221406 12 57 0.0 0.0 0.00 0.15 0.00 91 1010.3
20260504220906 12 57 0.0 0.0 0.00 0.15 0.00 91 1010.3
20260504220406 12 57 0.0 0.0 0.00 0.15 0.00 91 1010.3
20260504215906 12 57 0.0 0.0 0.00 0.15 0.15 91 1010.4
20260504214406 13 57 0.0 0.0 0.00 0.38 0.15 91 1010.5
20260504213906 13 57 0.0 0.0 0.00 0.46 0.15 91 1010.6
20260504213407 13 57 0.0 0.0 0.00 0.48 0.15 91 1010.6
20260504212906 13 57 0.0 0.0 0.00 0.48 0.15 91 1010.7
20260504212406 13 57 0.0 0.0 0.00 0.48 0.15 91 1010.7
20260504211906 13 80 0.0 0.0 0.00 0.51 0.15 91 1010.8
20260504211406 13 88 0.0 0.0 0.00 0.51 0.15 91 1010.8
20260504210905 13 87 0.0 0.0 0.00 0.53 0.15 91 1010.8
20260504205906 13 67 0.0 0.0 0.00 0.61 0.15 91 1010.9
20260504205406 13 67 0.0 0.0 0.00 0.61 0.15 91 1010.9
20260504204406 13 53 0.0 0.0 0.00 0.64 0.15 91 1011.0
20260504203906 13 53 0.0 0.0 0.00 0.66 0.15 91 1011.0
20260504203406 13 53 0.0 0.0 0.00 0.69 0.15 91 1011.0
20260504202907 13 53 0.0 0.0 0.00 0.71 0.15 91 1011.0
20260504201406 13 53 0.0 0.0 0.00 0.79 0.15 91 1010.9
20260504200906 13 53 0.0 0.0 0.00 0.79 0.15 91 1010.9
20260504200406 13 53 0.0 0.0 0.00 0.81 0.15 91 1010.9
20260504194906 14 53 0.0 0.0 0.00 0.86 0.15 91 1010.7
20260504194406 14 53 0.0 0.0 0.00 0.86 0.15 91 1010.6
20260504193907 14 53 0.0 0.0 0.00 0.86 0.15 91 1010.6
20260504193406 14 53 0.0 0.0 0.00 0.86 0.15 91 1010.5
20260504192906 14 53 0.0 0.0 0.00 0.89 0.15 91 1010.5
20260504192406 14 53 0.0 0.0 0.00 0.89 0.15 91 1010.5
20260504191906 14 53 0.0 0.0 0.00 0.91 0.15 91 1010.5
20260504190906 14 53 0.0 0.0 0.00 0.99 0.15 91 1010.4
20260504185906 14 53 0.0 0.0 0.00 1.02 0.15 90 1010.4
20260504185406 14 52 0.0 0.0 0.00 1.04 0.15 90 1010.4
20260504184906 14 42 0.0 0.0 0.00 1.07 0.15 91 1010.4
20260504184405 15 40 0.0 0.0 0.00 1.09 0.15 91 1010.4
20260504183406 15 57 0.0 0.0 0.00 1.12 0.15 91 1010.2
20260504182905 15 104 0.0 0.0 0.00 1.12 0.15 90 1010.3
20260504182406 15 54 0.0 0.0 0.00 1.12 0.15 90 1010.2
20260504181405 15 99 0.0 0.0 0.00 1.17 0.15 90 1010.1
20260504180906 15 99 0.0 0.0 0.00 1.17 0.15 90 1010.1
20260504180406 15 100 0.0 0.0 0.00 1.22 0.15 90 1010.2
20260504175906 15 94 0.0 0.0 0.00 1.22 0.15 90 1010.2
20260504175407 15 97 0.0 0.0 0.00 1.27 0.15 90 1010.3
20260504174905 15 115 0.0 0.0 0.00 1.27 0.15 90 1010.3
20260504174406 15 125 0.0 0.0 0.00 1.32 0.15 90 1010.3
20260504173906 15 153 0.0 3.2 0.00 1.37 0.15 90 1010.3
20260504173406 15 110 1.6 4.8 0.00 1.45 0.15 90 1010.3
20260504172406 15 106 3.2 8.0 0.00 1.55 0.15 89 1010.4
20260504171906 15 145 1.6 3.2 0.00 1.55 0.15 89 1010.4
20260504170906 15 109 1.6 4.8 0.00 1.55 0.15 89 1010.4
20260504170405 15 98 3.2 4.8 0.00 1.55 0.15 89 1010.5
20260504150905 16 110 3.2 4.8 0.13 1.52 0.15 90 1010.7
20260504150406 16 121 0.0 0.0 0.13 1.52 0.15 90 1010.8
20260504140906 17 99 3.2 8.0 0.00 1.52 0.03 82 1011.3
20260504140405 17 120 3.2 8.0 0.00 1.52 0.03 82 1011.2
20260504130406 17 94 0.0 4.8 0.00 1.52 0.03 81 1011.3
20260504110406 16 153 1.6 4.8 0.00 1.57 0.03 88 1012.2
20260504100406 15 150 3.2 8.0 0.00 1.73 0.03 92 1012.4
20260504081906 13 157 1.6 3.2 0.00 2.03 0.03 93 1012.3
20260504081405 13 218 0.0 3.2 0.00 2.03 0.03 93 1012.2
20260504080905 13 164 1.6 4.8 0.00 2.06 0.03 93 1012.2
20260504080406 13 184 0.0 3.2 0.00 2.06 0.03 93 1012.1
20260504070406 13 140 1.6 4.8 0.00 2.06 0.03 94 1011.6